Regional Weather Roundup
Issued by NWS Sioux Falls, SD

Home | Current Version | Previous Version | Graphics & Text | Print | Product List | Glossary On
Versions: 1 2 3 4 5 6 7 8 9 10 11 12 13 14 15 16 17 18 19 20 21 22 23 24 25 26 27 28 29 30 31 32 33 34 35 36 37 38 39 40 41 42 43 44 45 46 47 48 49 50
000
ASUS43 KFSD 290602
RWRFSD

WEATHER ROUNDUP FOR SE SOUTH DAKOTA/SW MINNESOTA/NW IOWA
NATIONAL WEATHER SERVICE SIOUX FALLS SD
100 AM CDT FRI APR 29 2016

NOTE: "FAIR" INDICATES FEW OR NO CLOUDS BELOW 12,000 FEET WITH NO
SIGNIFICANT WEATHER AND OR OBSTRUCTIONS TO VISIBILITY.


SDZ038>040-050-052>070-290700-
SOUTHEAST SOUTH DAKOTA

CITY           SKY/WX    TMP DP  RH WIND       PRES   REMARKS
BROOKINGS      CLOUDY    38  36  92 E7        30.12R
CHAMBERLAIN    NOT AVBL
HURON          MOCLDY    37  35  92 N6        30.14R
6HR MIN TEMP:  37; 6HR MAX TEMP:  41;

MADISON        CLOUDY    37  37 100 E6        30.12R
MITCHELL       CLOUDY    40  37  89 E3        30.15R
6HR MIN TEMP:  40; 6HR MAX TEMP:  43;

SIOUX FALLS    CLOUDY    39  36  89 CALM      30.13R
6HR MIN TEMP:  38; 6HR MAX TEMP:  41; 6HR PCP: TRACE;

WINNER         CLOUDY    42  39  89 W3        30.13S
YANKTON        CLOUDY    41  37  87 E5        30.13S
$$

MNZ071-072-080-081-089-090-097-098-290700-
SOUTHWEST MINNESOTA

CITY           SKY/WX    TMP DP  RH WIND       PRES   REMARKS
FAIRMONT       CLOUDY    39  30  70 NE7       30.11R
JACKSON        CLOUDY    39  36  87 NE7       30.12R
LUVERNE        CLOUDY    37  36  93 E5        30.13R
MARSHALL       CLOUDY    39  36  89 SE7       30.14R
6HR MIN TEMP:  38; 6HR MAX TEMP:  40; 6HR PCP: TRACE;

MONTEVIDEO     CLOUDY    39  39 100 E3        30.16R
PIPESTONE      CLOUDY    39  37  93 E7        30.10S
REDWOOD FALLS  CLOUDY    38  35  89 E5        30.13S
TRACY          CLOUDY    39  38  95 NE7       30.13S
WINDOM         CLOUDY    39  37  93 NE8       30.12R FOG
WORTHINGTON    CLOUDY    38  36  92 NE7       30.12R
$$

IAZ001>003-012>014-020>022-031-032-NEZ013-014-SDZ071-290700-
NORTHWEST IOWA

CITY           SKY/WX    TMP DP  RH WIND       PRES   REMARKS
DENISON        CLOUDY    43  41  93 N5        30.10R FOG
ESTHERVILLE    CLOUDY    38  38 100 NE8       30.11R
SIOUX CITY     CLOUDY    44  38  79 N5        30.14R
6HR MIN TEMP:  44; 6HR MAX TEMP:  45;

SPENCER        CLOUDY    40  36  86 NE7       30.11R
6HR MIN TEMP:  40; 6HR MAX TEMP:  42; 6HR PCP: TRACE;

STORM LAKE     CLOUDY    41  39  93 NE8       30.11S
$$

ABBREVIATIONS USED IN REMARKS
   TC - TEMPERATURE IN CELSIUS
  WCI - WIND CHILL INDEX
   HX - HEAT INDEX
  VSB - VISIBILITY





USA.gov is the U.S. government's official web portal to all federal, state and local government web resources and services.